EA1HEH-13 Weather Reports


time (UTC)temp
F
wind
direction
speed
knots
gust
knots
rain 1hr
in
rain 24hr
in
rain mn
in
humidity
%
barometer
mb
20260510234550 61 0.0 0.0 0.00 0.00 0.00 39 932.8
20260510233550 61 0.0 0.0 0.00 0.00 0.00 40 932.7
20260510232550 61 0.0 0.0 0.00 0.00 0.00 40 932.6
20260510231550 61 0.0 0.0 0.00 0.00 0.00 40 932.6
20260510230550 61 0.0 0.0 0.00 0.00 0.00 40 932.6
20260510225550 61 0.0 0.0 0.00 0.00 0.00 40 932.5
20260510224550 61 0.0 0.0 0.00 0.00 0.00 40 932.5
20260510223550 61 0.0 0.0 0.00 0.00 0.00 40 932.3
20260510222550 61 0.0 0.0 0.00 0.00 0.00 40 932.3
20260510221550 62 0.0 0.0 0.00 0.00 0.00 40 932.3
20260510220550 62 0.0 0.0 0.00 0.00 0.00 40 932.2
20260510215550 62 0.0 0.0 0.00 0.00 0.00 40 932.0
20260510214550 62 0.0 0.0 0.00 0.00 0.00 40 932.1
20260510213550 62 0.0 0.0 0.00 0.00 0.00 41 932.1
20260510212550 62 0.0 0.0 0.00 0.00 0.00 41 932.1
20260510211550 62 0.0 0.0 0.00 0.00 0.00 41 931.9
20260510210550 62 0.0 0.0 0.00 0.00 0.00 41 931.9
20260510205550 62 0.0 0.0 0.00 0.00 0.00 41 931.9
20260510204550 63 0.0 0.0 0.00 0.00 0.00 41 931.8
20260510203550 63 0.0 0.0 0.00 0.00 0.00 41 931.7
20260510202550 63 0.0 0.0 0.00 0.00 0.00 41 931.5
20260510201550 63 0.0 0.0 0.00 0.00 0.00 41 931.5
20260510200550 63 0.0 0.0 0.00 0.00 0.00 41 931.3
20260510195550 63 0.0 0.0 0.00 0.00 0.00 41 931.1
20260510194550 63 0.0 0.0 0.00 0.00 0.00 41 931.1
20260510193550 63 0.0 0.0 0.00 0.00 0.00 41 931.0
20260510192550 63 0.0 0.0 0.00 0.00 0.00 40 930.9
20260510191550 63 0.0 0.0 0.00 0.00 0.00 40 930.9
20260510190550 63 0.0 0.0 0.00 0.00 0.00 40 930.7
20260510185550 63 0.0 0.0 0.00 0.00 0.00 38 930.7
20260510184550 63 0.0 0.0 0.00 0.00 0.00 40 930.5
20260510183550 63 0.0 0.0 0.00 0.00 0.00 38 930.5
20260510182550 63 0.0 0.0 0.00 0.00 0.00 38 930.4
20260510181550 63 0.0 0.0 0.00 0.00 0.00 37 930.4
20260510180550 63 0.0 0.0 0.00 0.00 0.00 38 930.2
20260510175550 64 0.0 0.0 0.00 0.00 0.00 38 930.1
20260510174550 64 0.0 0.0 0.00 0.00 0.00 39 930.0
20260510173550 63 0.0 0.0 0.00 0.00 0.00 41 930.0
20260510172550 63 0.0 0.0 0.00 0.00 0.00 40 930.1
20260510171550 63 0.0 0.0 0.00 0.00 0.00 39 930.1
20260510170550 63 0.0 0.0 0.00 0.00 0.00 41 930.1
20260510165550 63 0.0 0.0 0.00 0.00 0.00 42 930.0
20260510164550 63 0.0 0.0 0.00 0.00 0.00 37 930.1
20260510163550 63 0.0 0.0 0.00 0.00 0.00 40 930.2
20260510162550 63 0.0 0.0 0.00 0.00 0.00 42 930.1
20260510161550 63 0.0 0.0 0.00 0.00 0.00 45 930.0
20260510160550 62 0.0 0.0 0.00 0.00 0.00 45 930.0
20260510155550 62 0.0 0.0 0.00 0.00 0.00 45 930.0
20260510154550 61 0.0 0.0 0.00 0.00 0.00 42 929.9
20260510153550 61 0.0 0.0 0.00 0.00 0.00 44 929.7
20260510152550 61 0.0 0.0 0.00 0.00 0.00 46 929.7
20260510151550 60 0.0 0.0 0.00 0.00 0.00 46 929.8
20260510150550 60 0.0 0.0 0.00 0.00 0.00 47 930.0
20260510145550 60 0.0 0.0 0.00 0.00 0.00 48 930.2
20260510144550 61 0.0 0.0 0.00 0.00 0.00 45 930.3
20260510143550 61 0.0 0.0 0.00 0.00 0.00 43 930.1
20260510142550 61 0.0 0.0 0.00 0.00 0.00 40 930.0
20260510141550 61 0.0 0.0 0.00 0.00 0.00 42 930.2
20260510140550 61 0.0 0.0 0.00 0.00 0.00 43 930.2
20260510135550 61 0.0 0.0 0.00 0.00 0.00 43 930.3
20260510134550 61 0.0 0.0 0.00 0.00 0.00 42 930.3
20260510133550 61 0.0 0.0 0.00 0.00 0.00 43 930.3
20260510132550 60 0.0 0.0 0.00 0.00 0.00 43 930.3
20260510131550 60 0.0 0.0 0.00 0.00 0.00 44 930.4
20260510130550 60 0.0 0.0 0.00 0.00 0.00 44 930.5
20260510125550 59 0.0 0.0 0.00 0.00 0.00 46 930.5
20260510124550 59 0.0 0.0 0.00 0.00 0.00 46 930.6
20260510123550 58 0.0 0.0 0.00 0.00 0.00 47 930.8
20260510122550 58 0.0 0.0 0.00 0.00 0.00 46 931.1
20260510121550 58 0.0 0.0 0.00 0.00 0.00 47 931.0
20260510120550 58 0.0 0.0 0.00 0.00 0.00 48 931.3
20260510115550 57 0.0 0.0 0.00 0.00 0.00 48 931.2
20260510114550 57 0.0 0.0 0.00 0.00 0.00 48 931.3
20260510113550 57 0.0 0.0 0.00 0.00 0.00 49 931.2
20260510112550 56 0.0 0.0 0.00 0.00 0.00 49 931.3
20260510111551 56 0.0 0.0 0.00 0.00 0.00 49 931.5
20260510110550 56 0.0 0.0 0.00 0.00 0.00 49 931.4
20260510105550 56 0.0 0.0 0.00 0.00 0.00 49 931.2
20260510104550 55 0.0 0.0 0.00 0.00 0.00 49 931.2
20260510103550 55 0.0 0.0 0.00 0.00 0.00 50 931.3
20260510102550 54 0.0 0.0 0.00 0.00 0.00 48 931.4
20260510101550 54 0.0 0.0 0.00 0.00 0.00 49 931.6
20260510100550 53 0.0 0.0 0.00 0.00 0.00 49 931.9
20260510095550 53 0.0 0.0 0.00 0.00 0.00 49 931.8
20260510094550 53 0.0 0.0 0.00 0.00 0.00 49 932.1
20260510093549 53 0.0 0.0 0.00 0.00 0.00 50 931.9
20260510092550 54 0.0 0.0 0.00 0.00 0.00 50 931.7
20260510091550 56 0.0 0.0 0.00 0.00 0.00 52 931.5
20260510090550 57 0.0 0.0 0.00 0.00 0.00 52 931.1
20260510085549 58 0.0 0.0 0.00 0.00 0.00 50 930.7
20260510084549 60 0.0 0.0 0.00 0.00 0.00 47 930.6
20260510083549 60 0.0 0.0 0.00 0.00 0.00 41 930.6
20260510082549 60 0.0 0.0 0.00 0.00 0.00 41 930.6
20260510081549 60 0.0 0.0 0.00 0.00 0.00 41 930.6
20260510080549 60 0.0 0.0 0.00 0.00 0.00 41 930.5
20260510075550 60 0.0 0.0 0.00 0.00 0.00 41 930.6
20260510074549 60 0.0 0.0 0.00 0.00 0.00 42 930.3
20260510073549 60 0.0 0.0 0.00 0.00 0.00 42 930.2
20260510072549 60 0.0 0.0 0.00 0.00 0.00 40 930.4
20260510071549 60 0.0 0.0 0.00 0.00 0.00 40 930.4
20260510070549 60 0.0 0.0 0.00 0.00 0.00 40 930.4
20260510065549 60 0.0 0.0 0.00 0.00 0.00 40 930.5
20260510064549 60 0.0 0.0 0.00 0.00 0.00 40 930.5
20260510063549 60 0.0 0.0 0.00 0.00 0.00 40 930.3
20260510062549 60 0.0 0.0 0.00 0.00 0.00 40 930.2
20260510061549 60 0.0 0.0 0.00 0.00 0.00 40 930.2
20260510060549 60 0.0 0.0 0.00 0.00 0.00 40 930.4
20260510055549 60 0.0 0.0 0.00 0.00 0.00 40 930.5
20260510054549 60 0.0 0.0 0.00 0.00 0.00 40 930.4
20260510053549 60 0.0 0.0 0.00 0.00 0.00 40 930.4
20260510052549 60 0.0 0.0 0.00 0.00 0.00 40 930.4
20260510051549 60 0.0 0.0 0.00 0.00 0.00 40 930.4
20260510050549 61 0.0 0.0 0.00 0.00 0.00 40 930.4
20260510045549 61 0.0 0.0 0.00 0.00 0.00 40 930.3
20260510044549 61 0.0 0.0 0.00 0.00 0.00 40 930.4
20260510043549 61 0.0 0.0 0.00 0.00 0.00 40 930.4
20260510042549 61 0.0 0.0 0.00 0.00 0.00 40 930.4
20260510041549 61 0.0 0.0 0.00 0.00 0.00 40 930.5
20260510040549 61 0.0 0.0 0.00 0.00 0.00 40 930.6
20260510035549 61 0.0 0.0 0.00 0.00 0.00 40 930.7
20260510034549 61 0.0 0.0 0.00 0.00 0.00 40 930.7
20260510033549 60 0.0 0.0 0.00 0.00 0.00 40 930.8
20260510032549 61 0.0 0.0 0.00 0.00 0.00 40 930.9
20260510031549 61 0.0 0.0 0.00 0.00 0.00 40 930.9
20260510030549 61 0.0 0.0 0.00 0.00 0.00 40 930.9
20260510025549 61 0.0 0.0 0.00 0.00 0.00 40 930.8
20260510024549 61 0.0 0.0 0.00 0.00 0.00 40 930.9
20260510023549 61 0.0 0.0 0.00 0.00 0.00 40 930.9
20260510022549 61 0.0 0.0 0.00 0.00 0.00 40 930.9
20260510021549 61 0.0 0.0 0.00 0.00 0.00 40 931.0
20260510020549 61 0.0 0.0 0.00 0.00 0.00 40 931.0
20260510015549 61 0.0 0.0 0.00 0.00 0.00 40 931.0
20260510014549 61 0.0 0.0 0.00 0.00 0.00 41 931.1
20260510013549 61 0.0 0.0 0.00 0.00 0.00 41 931.1
20260510012549 61 0.0 0.0 0.00 0.00 0.00 41 931.0
20260510011549 61 0.0 0.0 0.00 0.00 0.00 42 931.0
20260510010549 61 0.0 0.0 0.00 0.00 0.00 42 931.1
20260510005549 61 0.0 0.0 0.00 0.00 0.00 43 931.2
20260510004549 61 0.0 0.0 0.00 0.00 0.00 44 931.3
20260510003549 62 0.0 0.0 0.00 0.00 0.00 44 931.3
20260510002549 62 0.0 0.0 0.00 0.00 0.00 45 931.2
20260510001549 62 0.0 0.0 0.00 0.00 0.00 45 931.2
20260510000549 62 0.0 0.0 0.00 0.00 0.00 46 931.3
20260509235549 62 0.0 0.0 0.00 0.00 0.00 46 931.2